When you browse on this site, cookies collect data to enhance your experience and personalize the content and advertising you see.
Visit our Privacy Policy to learn more. By continuing to use the site, you agree to this use of cookies and data.
  • In Romania
  • List of Countries
  • For 7 days
  • Water Temperature
  • Weather Map
  • Weather Widgets
  • user-avatar
    Login

    Hourly Weather Arbela

    Today, 23 February, Sunday

    Time Temperature Precipitation Wind Pressure Humidity
    00:00 +11°C° 0.3 mm 3 mps 729 mmHg 83%
    01:00 +11°C° 0 mm 4 mps 729 mmHg 81%
    02:00 +11°C° 0 mm 4 mps 729 mmHg 79%
    03:00 +11°C° 0 mm 4 mps 728 mmHg 81%
    04:00 +11°C° 0 mm 4 mps 729 mmHg 80%
    05:00 +10°C° 0 mm 5 mps 729 mmHg 79%
    06:00 +10°C° 0 mm 5 mps 729 mmHg 78%
    07:00 +10°C° 0 mm 5 mps 729 mmHg 76%
    08:00 +12°C° 0 mm 4 mps 729 mmHg 74%
    09:00 +13°C° 0 mm 4 mps 729 mmHg 75%
    10:00 +14°C° 0 mm 4 mps 729 mmHg 67%
    11:00 +17°C° 0 mm 4 mps 729 mmHg 60%
    12:00 +17°C° 0 mm 5 mps 729 mmHg 53%
    13:00 +18°C° 0 mm 4 mps 729 mmHg 51%
    14:00 +19°C° 0 mm 4 mps 728 mmHg 49%
    15:00 +19°C° 0 mm 4 mps 727 mmHg 47%
    16:00 +18°C° 0 mm 3 mps 727 mmHg 52%
    17:00 +16°C° 0 mm 3 mps 727 mmHg 57%
    18:00 +15°C° 0 mm 2 mps 727 mmHg 62%
    19:00 +14°C° 0 mm 3 mps 728 mmHg 63%
    20:00 +13°C° 0 mm 3 mps 728 mmHg 64%
    21:00 +13°C° 0 mm 3 mps 728 mmHg 65%
    22:00 +12°C° 0 mm 3 mps 728 mmHg 65%
    23:00 +12°C° 0 mm 3 mps 728 mmHg 65%

    Tomorrow, 24 February, Monday

    Time Temperature Precipitation Wind Pressure Humidity
    00:00 +12°C° 0 mm 3 mps 728 mmHg 64%
    01:00 +11°C° 0 mm 3 mps 728 mmHg 64%
    02:00 +11°C° 0 mm 3 mps 727 mmHg 64%
    03:00 +12°C° 0 mm 2 mps 727 mmHg 64%
    04:00 +12°C° 0 mm 2 mps 727 mmHg 64%
    05:00 +10°C° 0 mm 2 mps 727 mmHg 64%
    06:00 +10°C° 0 mm 2 mps 727 mmHg 64%
    07:00 +12°C° 0 mm 2 mps 727 mmHg 62%
    08:00 +14°C° 0 mm 2 mps 727 mmHg 60%
    09:00 +15°C° 0 mm 2 mps 728 mmHg 57%
    10:00 +16°C° 0 mm 2 mps 727 mmHg 53%
    11:00 +18°C° 0 mm 1 mps 727 mmHg 48%
    12:00 +19°C° 0 mm 1 mps 726 mmHg 44%
    13:00 +19°C° 0 mm 1 mps 726 mmHg 43%
    14:00 +19°C° 0 mm 1 mps 725 mmHg 43%
    15:00 +19°C° 0 mm 1 mps 725 mmHg 42%
    16:00 +18°C° 0 mm 1 mps 725 mmHg 48%
    17:00 +16°C° 0 mm 1 mps 725 mmHg 55%
    18:00 +15°C° 0 mm 1 mps 724 mmHg 62%
    19:00 +15°C° 0 mm 1 mps 725 mmHg 62%
    20:00 +15°C° 0 mm 1 mps 725 mmHg 62%
    21:00 +15°C° 0 mm 1 mps 725 mmHg 63%
    22:00 +14°C° 0 mm 1 mps 725 mmHg 63%
    23:00 +14°C° 0 mm 2 mps 725 mmHg 63%

    Day after tomorrow, 25 February, Tuesday

    Time Temperature Precipitation Wind Pressure Humidity
    00:00 +14°C° 0 mm 2 mps 724 mmHg 63%
    01:00 +14°C° 0 mm 2 mps 724 mmHg 62%
    02:00 +14°C° 0 mm 2 mps 724 mmHg 62%
    03:00 +13°C° 0 mm 3 mps 724 mmHg 62%
    04:00 +12°C° 0 mm 3 mps 723 mmHg 63%
    05:00 +13°C° 0 mm 2 mps 723 mmHg 64%
    06:00 +13°C° 0 mm 2 mps 723 mmHg 65%
    07:00 +13°C° 0 mm 2 mps 723 mmHg 62%
    08:00 +14°C° 0 mm 1 mps 723 mmHg 60%
    09:00 +15°C° 0 mm 1 mps 723 mmHg 58%
    10:00 +16°C° 0 mm 1 mps 723 mmHg 56%
    11:00 +18°C° 0 mm 1 mps 722 mmHg 54%
    12:00 +16°C° 0 mm 0 mps 722 mmHg 52%
    13:00 +19°C° 0 mm 1 mps 721 mmHg 48%
    14:00 +19°C° 0 mm 2 mps 720 mmHg 44%
    15:00 +19°C° 0 mm 3 mps 720 mmHg 41%
    16:00 +18°C° 0 mm 3 mps 720 mmHg 46%
    17:00 +16°C° 0 mm 3 mps 719 mmHg 52%
    18:00 +15°C° 0 mm 2 mps 719 mmHg 58%
    19:00 +14°C° 0 mm 2 mps 719 mmHg 61%
    20:00 +14°C° 0 mm 2 mps 720 mmHg 63%
    21:00 +13°C° 0 mm 2 mps 720 mmHg 66%
    22:00 +12°C° 0 mm 3 mps 720 mmHg 67%
    23:00 +11°C° 0 mm 3 mps 719 mmHg 68%

    26 February, Wednesday

    Time Temperature Precipitation Wind Pressure Humidity
    00:00 +11°C° 0 mm 3 mps 719 mmHg 69%
    01:00 +11°C° 0 mm 3 mps 719 mmHg 68%
    02:00 +10°C° 0 mm 3 mps 719 mmHg 67%
    03:00 +10°C° 0 mm 3 mps 719 mmHg 65%
    04:00 +9°C° 0 mm 3 mps 719 mmHg 62%
    05:00 +9°C° 0 mm 3 mps 719 mmHg 58%
    06:00 +7°C° 0 mm 4 mps 719 mmHg 55%
    07:00 +8°C° 0 mm 4 mps 720 mmHg 52%
    08:00 +10°C° 0 mm 3 mps 720 mmHg 50%
    09:00 +11°C° 0 mm 3 mps 721 mmHg 47%
    10:00 +12°C° 0 mm 3 mps 722 mmHg 44%
    11:00 +14°C° 0 mm 2 mps 722 mmHg 41%
    12:00 +16°C° 0 mm 2 mps 723 mmHg 38%
    13:00 +16°C° 0 mm 2 mps 723 mmHg 39%
    14:00 +17°C° 0 mm 3 mps 723 mmHg 39%
    15:00 +17°C° 0 mm 3 mps 724 mmHg 40%
    16:00 +16°C° 0 mm 2 mps 724 mmHg 48%
    17:00 +14°C° 0 mm 1 mps 724 mmHg 56%
    18:00 +13°C° 0 mm 1 mps 725 mmHg 64%
    19:00 +13°C° 0 mm 1 mps 725 mmHg 65%
    20:00 +12°C° 0 mm 1 mps 726 mmHg 66%
    21:00 +12°C° 0 mm 1 mps 726 mmHg 67%
    22:00 +11°C° 0 mm 1 mps 727 mmHg 65%
    23:00 +11°C° 0 mm 1 mps 727 mmHg 64%

    27 February, Thursday

    Time Temperature Precipitation Wind Pressure Humidity
    00:00 +10°C° 0 mm 1 mps 727 mmHg 63%
    01:00 +10°C° 0 mm 1 mps 727 mmHg 61%
    02:00 +10°C° 0 mm 1 mps 727 mmHg 59%
    03:00 +10°C° 0 mm 1 mps 727 mmHg 57%
    04:00 +9°C° 0 mm 1 mps 728 mmHg 55%
    05:00 +9°C° 0 mm 1 mps 728 mmHg 53%
    06:00 +9°C° 0 mm 1 mps 728 mmHg 52%
    07:00 +10°C° 0 mm 1 mps 728 mmHg 48%
    08:00 +12°C° 0 mm 1 mps 729 mmHg 44%
    09:00 +13°C° 0 mm 1 mps 729 mmHg 41%
    10:00 +14°C° 0 mm 1 mps 729 mmHg 39%
    11:00 +16°C° 0 mm 1 mps 729 mmHg 37%
    12:00 +18°C° 0 mm 1 mps 729 mmHg 35%
    13:00 +18°C° 0 mm 1 mps 728 mmHg 35%
    14:00 +18°C° 0 mm 2 mps 728 mmHg 34%
    15:00 +18°C° 0 mm 2 mps 727 mmHg 34%
    16:00 +17°C° 0 mm 2 mps 727 mmHg 40%
    17:00 +15°C° 0 mm 2 mps 727 mmHg 47%
    18:00 +14°C° 0 mm 2 mps 727 mmHg 53%
    19:00 +13°C° 0 mm 1 mps 727 mmHg 56%
    20:00 +13°C° 0 mm 1 mps 727 mmHg 59%
    21:00 +12°C° 0 mm 1 mps 727 mmHg 61%
    22:00 +12°C° 0 mm 1 mps 727 mmHg 62%
    23:00 +12°C° 0 mm 1 mps 727 mmHg 62%

    28 February, Friday

    Time Temperature Precipitation Wind Pressure Humidity
    00:00 +11°C° 0 mm 1 mps 727 mmHg 63%
    01:00 +11°C° 0 mm 1 mps 726 mmHg 63%
    02:00 +11°C° 0 mm 1 mps 726 mmHg 64%
    03:00 +11°C° 0 mm 1 mps 726 mmHg 64%
    04:00 +9°C° 0 mm 0 mps 725 mmHg 64%
    05:00 +9°C° 0 mm 0 mps 725 mmHg 64%
    06:00 +9°C° 0 mm 0 mps 725 mmHg 63%
    07:00 +10°C° 0 mm 0 mps 726 mmHg 59%
    08:00 +13°C° 0 mm 1 mps 726 mmHg 54%
    09:00 +14°C° 0 mm 1 mps 726 mmHg 50%
    10:00 +15°C° 0 mm 1 mps 726 mmHg 48%
    11:00 +16°C° 0 mm 1 mps 725 mmHg 45%
    12:00 +18°C° 0 mm 1 mps 725 mmHg 43%
    13:00 +18°C° 0 mm 1 mps 725 mmHg 42%
    14:00 +19°C° 0 mm 1 mps 724 mmHg 40%
    15:00 +19°C° 0 mm 1 mps 724 mmHg 39%
    16:00 +18°C° 0 mm 1 mps 724 mmHg 45%
    17:00 +16°C° 0 mm 1 mps 724 mmHg 52%
    18:00 +13°C° 0 mm 0 mps 724 mmHg 58%
    19:00 +13°C° 0 mm 0 mps 724 mmHg 58%
    20:00 +14°C° 0 mm 1 mps 725 mmHg 59%
    21:00 +13°C° 0 mm 1 mps 725 mmHg 59%
    22:00 +13°C° 0 mm 1 mps 725 mmHg 59%
    23:00 +13°C° 0 mm 1 mps 725 mmHg 58%
    Show more